Home   Weather   Larnaca   Past weeks

Flag for Cyprus Past Weather in Larnaca, Cyprus — Yesterday and Last 2 Weeks

Now
59 °F

Scattered clouds.


Feels Like: 57 °F
Forecast: 40 / 60 °F
Wind: 12 mph from Northeast

Location: Larnaca Airport

Current Time: Jan 21, 2017 at 12:55:31 pm

Latest Report: Jan 21, 2017 at 12:00 pm


Visibility: N/A

Pressure: 30.12 "Hg

Humidity: 51%

Dew Point: 41 °F

Location of LarnacaLocation

Past Weather in Larnaca — Graph

°F

Larnaca Temperature Yesterday

Maximum temperature yesterday: 63 °F (at 9:30 am)
Minimum temperature yesterday: 46 °F (at 5:00 am)
Average temperature yesterday: 55 °F

High & Low Weather Summary for the Past Weeks

 TemperatureHumidityPressure
High64 °F (Jan 6, 11:30 am)100% (Jan 6, 10:00 pm)30.33 "Hg (Jan 6, 10:00 pm)
Low39 °F (Jan 9, 9:30 pm)31% (Jan 9, 1:00 pm)29.68 "Hg (Jan 8, 12:30 pm)
Average53 °F73%30.06 "Hg
* Reported Jan 6 11:00 am — Jan 21 11:30 am, Larnaca, Weather by CustomWeather, © 2017

Note: Actual official high and low records may vary slightly from our data, if they occured in-between our weather recording intervals... More about our weather records

Advertising

Larnaca Weather History for the Previous 24 Hours

Scroll right to see more
 ConditionsComfort  
Time TempWeatherWind HumidityBarometerVisibility
11:30 am
Sat, Jan 21
61 °FScattered clouds.10 mph45%30.12 "HgN/A
11:00 am59 °FPassing clouds.12 mph48%30.12 "HgN/A
10:30 am59 °FPassing clouds.12 mph48%30.15 "HgN/A
10:00 am59 °FPassing clouds.8 mph51%30.15 "HgN/A
9:30 am57 °FPassing clouds.9 mph59%30.15 "HgN/A
9:00 am57 °FScattered clouds.6 mph63%30.15 "HgN/A
8:30 am52 °FPassing clouds.7 mph77%30.12 "HgN/A
8:00 am50 °FPassing clouds.7 mph76%30.12 "HgN/A
7:30 am46 °FPassing clouds.8 mph87%30.12 "HgN/A
7:00 am46 °FPassing clouds.7 mph87%30.12 "HgN/A
6:30 am46 °FPassing clouds.8 mph87%30.09 "HgN/A
6:00 am46 °FPassing clouds.8 mph87%30.09 "HgN/A
5:30 am46 °FPassing clouds.8 mph87%30.09 "HgN/A
5:00 am46 °FPassing clouds.8 mph87%30.09 "HgN/A
4:30 am48 °FPassing clouds.9 mph82%30.09 "HgN/A
4:00 am48 °FPassing clouds.7 mph82%30.09 "HgN/A
3:30 am48 °FPassing clouds.6 mph82%30.09 "HgN/A
3:00 am48 °FPassing clouds.7 mph82%30.09 "HgN/A
2:30 am48 °FPassing clouds.6 mph87%30.12 "HgN/A
2:00 am48 °FPassing clouds.7 mph87%30.09 "HgN/A
1:30 am50 °FPassing clouds.6 mph76%30.09 "HgN/A
1:00 am52 °FPassing clouds.7 mph77%30.09 "HgN/A
12:30 am54 °FPassing clouds.7 mph77%30.12 "HgN/A
12:00 am54 °FPassing clouds.6 mph77%30.12 "HgN/A
11:30 pm
Fri, Jan 20
52 °FPassing clouds.5 mph82%30.12 "HgN/A
11:00 pm52 °FPassing clouds.3 mph82%30.12 "HgN/A
10:30 pm54 °FPassing clouds.3 mph82%30.12 "HgN/A
10:00 pm54 °FPassing clouds.3 mph77%30.12 "HgN/A
9:30 pm55 °FPassing clouds.3 mph77%30.12 "HgN/A
9:00 pm54 °FPassing clouds.5 mph82%30.12 "HgN/A
8:30 pm54 °FPassing clouds.3 mph82%30.12 "HgN/A
8:00 pm54 °FPassing clouds.1 mph82%30.12 "HgN/A
7:30 pm54 °FPassing clouds.2 mph77%30.12 "HgN/A
7:00 pm55 °FPassing clouds.3 mph77%30.12 "HgN/A
6:30 pm57 °FPassing clouds.3 mph72%30.12 "HgN/A
6:00 pm57 °FPassing clouds.5 mph72%30.12 "HgN/A
5:30 pm57 °FPassing clouds.1 mph72%30.12 "HgN/A
5:00 pm59 °FScattered clouds.3 mph68%30.09 "HgN/A
4:30 pm59 °FScattered clouds.6 mph68%30.09 "HgN/A
4:00 pm61 °FScattered clouds.5 mph63%30.12 "HgN/A
3:30 pm61 °FLight rain. Broken clouds.2 mph63%30.12 "HgN/A
3:00 pm61 °FBroken clouds.1 mph55%30.12 "HgN/A
2:30 pm61 °FBroken clouds.1 mph52%30.12 "HgN/A
2:00 pm61 °FPartly sunny.2 mph52%30.12 "HgN/A
1:30 pm61 °FPartly sunny.8 mph59%30.12 "HgN/A
1:00 pm61 °FPartly sunny.6 mph59%30.12 "HgN/A
12:30 pm63 °FPassing clouds.6 mph56%30.12 "HgN/A
12:00 pm63 °FPassing clouds.7 mph56%30.15 "HgN/A
Weather by CustomWeather, © 2017

See weather overviewHow to use our weather pages